Weather in Umygan

Russia / Irkutsk Oblast     54°45′02″N   100°13′50″E
temp.,
°C
wind,
m/s
gust,
m/s
humid.,
%
clouds,
%
prec.,
mm/h
press.,
hPa
HPBL,
m
2 december, thu
thu223:00−5wnw41592100 0.6 10261172
02:00−5nw41285100 0.8 1026788
05:00−8sw1296100 0.0 102632
08:00−6ssw2691100 0.0 1025137
11:00−5sw2679100 0.0 1023121
14:00−1w31266100 0.0 1022933
17:00−2wnw3970100 0.0 1022281
20:00−5w2682100 0.0 1023112
3 december, fri
fri323:00−6wsw238498 0.0 102352
02:00−6wsw2288100 0.0 102326
05:00−8sw229059 0.0 102227
08:00−10sw2289100 0.0 102218
11:00−7sw257899 0.0 102181
14:000ssw25695 0.0 1017122
17:00−8ssw228765 0.0 101814
20:00−10s22906 0.0 101720
4 december, sat
sat423:00−10ssw21916 0.0 101621
02:00−10ssw2286100 0.0 101422
05:00−5sw2674100 0.0 101281
08:00−4sw1182100 0.1 101215
11:00+1wnw61859100 0.1 10141157
14:00+1wnw616665 0.1 10171459
17:00−2wnw3117114 0.0 1018309
20:00−7sw1192100 0.0 102011
5 december, sun
sun523:00−3w4137399 0.0 1020903
02:00−4wnw51190100 0.9 10221073
05:00−6wnw5168998 0.7 10271704
08:00−7wnw5167799 0.8 10291558
11:00−6wnw61773100 0.0 10301528
14:00−5wnw51673100 0.0 10291585
17:00−5w3877100 0.0 1029319
20:00−7s119284 0.0 102916
6 december, mon
mon623:00−8sse2492100 0.0 102784
02:00−8s2592100 0.0 102596
05:00−10ssw139486 0.0 102435
08:00−11sw1194100 0.0 102419
11:00−7sw137975 0.0 102268
14:00−2ssw1272100 0.0 102096
17:00−7sse1192100 0.0 102110
20:00−8sse1389100 0.0 102042